Simultaneous Nadir Overpasses (SNOs) Predictions

Prediction of SNOs between GOES-17 and METOP-B Satellite Orbit:

Table of predicted SNOs for the next 14.0 days since TLE Epoch: 2/21/2025
Index Date Time (GOES-17) GOES-17 Lat,Lon METOP-B Lat,Lon Distance(km) Time Diff (sec)
1 02/23/2025 04:17:23 0.00,-104.39 -0.47,-106.61 252.58 80
2 02/24/2025 03:59:26 -0.02,-104.39 0.61,-101.63 314.28 80
3 02/25/2025 16:18:23 0.01,-104.40 0.40,-106.24 208.93 80
4 02/26/2025 15:55:07 0.01,-104.40 -0.69,-101.26 357.35 80
5 02/28/2025 04:14:12 -0.01,-104.38 -0.33,-105.90 172.76 80
6 03/01/2025 03:56:16 -0.01,-104.38 0.77,-100.92 393.93 80
7 03/02/2025 16:15:13 0.01,-104.40 0.23,-105.53 128.43 80
8 03/03/2025 15:51:57 0.01,-104.39 -0.87,-100.56 438.01 80
9 03/05/2025 04:11:01 -0.01,-104.37 -0.19,-105.18 92.41 80
10 03/06/2025 03:53:04 -0.00,-104.37 0.91,-100.21 473.97 80
11 03/07/2025 16:12:02 0.00,-104.39 0.07,-104.82 48.75 80
